Time,TemperatureF,DewpointF,PressureIn,WindDirection,WindDirectionDegrees,WindSpeedMPH,WindSpeedGustMPH,Humidity,HourlyPrecipIn,Conditions,Clouds,dailyrainin,SoftwareType,DateUTC
2013-01-25 00:00:00,34.5,16.9,30.03,ESE,112,3.8,3.8,48,0.00,,---,0.00,VWS V14.00,2013-01-25 06:00:00,
2013-01-25 00:06:00,34.5,16.9,30.03,North,0,3.5,3.5,48,0.00,,---,0.00,VWS V14.00,2013-01-25 06:06:00,
2013-01-25 00:11:00,34.5,16.9,30.03,ENE,68,1.0,1.6,48,0.00,,---,0.00,VWS V14.00,2013-01-25 06:11:00,
2013-01-25 00:17:00,34.5,16.9,30.00,ENE,68,2.4,2.4,48,0.00,,---,0.00,VWS V14.00,2013-01-25 06:17:00,
2013-01-25 00:22:00,34.5,16.9,30.00,ENE,68,3.5,3.5,48,0.00,,---,0.00,VWS V14.00,2013-01-25 06:22:00,
2013-01-25 00:27:00,34.5,16.4,30.00,West,270,2.1,2.1,47,0.00,,---,0.00,VWS V14.00,2013-01-25 06:27:00,
2013-01-25 00:33:00,34.5,16.4,30.00,NNE,22,3.5,3.5,47,0.00,,---,0.00,VWS V14.00,2013-01-25 06:33:00,
2013-01-25 00:38:00,34.5,16.9,30.00,SE,135,2.7,2.7,48,0.00,,---,0.00,VWS V14.00,2013-01-25 06:38:00,
2013-01-25 00:43:00,34.5,16.9,30.00,NE,45,3.5,3.5,48,0.00,,---,0.00,VWS V14.00,2013-01-25 06:43:00,
2013-01-25 00:49:00,34.5,16.9,29.97,SSE,158,3.0,3.0,48,0.00,,---,0.00,VWS V14.00,2013-01-25 06:49:00,
2013-01-25 00:55:00,34.5,17.3,29.97,East,90,3.8,3.8,49,0.00,,---,0.00,VWS V14.00,2013-01-25 06:55:00,
2013-01-25 01:00:00,34.5,17.3,29.97,NW,315,3.5,3.5,49,0.00,,---,0.00,VWS V14.00,2013-01-25 07:00:00,
2013-01-25 01:06:00,34.5,17.3,29.97,North,0,1.0,2.0,49,0.00,,---,0.00,VWS V14.00,2013-01-25 07:06:00,
2013-01-25 01:11:00,34.5,17.3,29.97,East,90,2.4,2.4,49,0.00,,---,0.00,VWS V14.00,2013-01-25 07:11:00,
2013-01-25 01:18:00,34.7,17.5,29.97,East,90,1.0,1.1,49,0.00,,---,0.00,VWS V14.00,2013-01-25 07:18:00,
2013-01-25 01:24:00,34.5,17.3,29.97,ESE,112,1.0,3.1,49,0.00,,---,0.00,VWS V14.00,2013-01-25 07:24:00,
2013-01-25 01:29:00,34.7,17.5,29.97,SW,225,2.1,2.1,49,0.00,,---,0.00,VWS V14.00,2013-01-25 07:29:00,
2013-01-25 01:34:00,34.7,18.0,29.94,SE,135,2.7,2.7,50,0.00,,---,0.00,VWS V14.00,2013-01-25 07:34:00,
2013-01-25 01:40:00,34.7,18.0,29.94,NW,315,3.0,3.0,50,0.00,,---,0.00,VWS V14.00,2013-01-25 07:40:00,
2013-01-25 01:45:00,34.7,18.0,29.94,East,90,2.1,2.1,50,0.00,,---,0.00,VWS V14.00,2013-01-25 07:45:00,
2013-01-25 01:51:00,34.7,18.0,29.94,NNE,22,2.4,2.4,50,0.00,,---,0.00,VWS V14.00,2013-01-25 07:51:00,
2013-01-25 01:56:00,34.7,18.0,29.94,ESE,112,2.1,2.1,50,0.00,,---,0.00,VWS V14.00,2013-01-25 07:56:00,
2013-01-25 02:02:00,34.7,18.0,29.94,North,0,1.0,2.0,50,0.00,,---,0.00,VWS V14.00,2013-01-25 08:02:00,
2013-01-25 02:07:00,34.7,18.4,29.94,South,180,2.4,2.4,51,0.00,,---,0.00,VWS V14.00,2013-01-25 08:07:00,
2013-01-25 02:13:00,34.7,18.4,29.94,NE,45,1.0,0.0,51,0.00,,---,0.00,VWS V14.00,2013-01-25 08:13:00,
2013-01-25 02:20:00,34.7,18.4,29.91,ESE,112,2.1,2.1,51,0.00,,---,0.00,VWS V14.00,2013-01-25 08:20:00,
2013-01-25 02:26:00,34.9,18.6,29.91,North,0,2.1,2.5,51,0.00,,---,0.00,VWS V14.00,2013-01-25 08:26:00,
2013-01-25 02:31:00,34.9,18.6,29.94,North,0,4.6,4.6,51,0.00,,---,0.00,VWS V14.00,2013-01-25 08:31:00,
2013-01-25 02:37:00,34.9,18.6,29.94,North,0,4.1,4.1,51,0.00,,---,0.00,VWS V14.00,2013-01-25 08:37:00,
2013-01-25 02:42:00,34.9,18.6,29.94,NNE,22,1.0,0.0,51,0.00,,---,0.00,VWS V14.00,2013-01-25 08:42:00,
2013-01-25 02:48:00,34.9,18.6,29.91,East,90,2.7,2.7,51,0.00,,---,0.00,VWS V14.00,2013-01-25 08:48:00,
2013-01-25 02:53:00,35.1,18.8,29.91,ESE,112,3.8,3.8,51,0.00,,---,0.00,VWS V14.00,2013-01-25 08:53:00,
2013-01-25 02:58:00,35.1,19.2,29.91,NW,315,2.4,2.9,52,0.00,,---,0.00,VWS V14.00,2013-01-25 08:58:00,
2013-01-25 03:03:00,35.1,19.2,29.91,NW,315,1.0,1.1,52,0.00,,---,0.00,VWS V14.00,2013-01-25 09:03:00,
2013-01-25 03:08:00,34.9,19.1,29.91,NW,315,4.6,4.7,52,0.00,,---,0.00,VWS V14.00,2013-01-25 09:08:00,
2013-01-25 03:14:00,34.9,19.5,29.91,NW,315,1.0,1.6,53,0.00,,---,0.00,VWS V14.00,2013-01-25 09:14:00,
2013-01-25 03:20:00,34.5,19.2,29.91,NE,45,1.0,0.0,53,0.00,,---,0.00,VWS V14.00,2013-01-25 09:20:00,
2013-01-25 03:25:00,34.5,19.6,29.91,North,0,4.4,4.4,54,0.00,,---,0.00,VWS V14.00,2013-01-25 09:25:00,
2013-01-25 03:30:00,34.3,19.9,29.91,NNE,22,6.0,6.0,55,0.00,,---,0.00,VWS V14.00,2013-01-25 09:30:00,
2013-01-25 03:36:00,34.3,20.3,29.91,NW,315,4.6,4.6,56,0.00,,---,0.00,VWS V14.00,2013-01-25 09:36:00,
2013-01-25 03:42:00,34.2,20.1,29.91,North,0,6.3,6.3,56,0.00,,---,0.00,VWS V14.00,2013-01-25 09:42:00,
2013-01-25 03:48:00,34.2,20.5,29.91,NW,315,6.0,6.0,57,0.00,,---,0.00,VWS V14.00,2013-01-25 09:48:00,
2013-01-25 03:54:00,34.2,20.5,29.91,NNW,338,4.9,4.9,57,0.00,,---,0.00,VWS V14.00,2013-01-25 09:54:00,
2013-01-25 03:59:00,34.2,20.5,29.91,NNW,338,6.3,6.3,57,0.00,,---,0.00,VWS V14.00,2013-01-25 09:59:00,
2013-01-25 04:05:00,34.2,20.5,29.91,North,0,4.6,4.6,57,0.00,,---,0.00,VWS V14.00,2013-01-25 10:05:00,
2013-01-25 04:11:00,34.0,20.8,29.91,NNW,338,5.2,5.2,58,0.00,,---,0.00,VWS V14.00,2013-01-25 10:11:00,
2013-01-25 04:17:00,34.0,21.2,29.88,North,0,5.2,5.2,59,0.00,,---,0.00,VWS V14.00,2013-01-25 10:17:00,
2013-01-25 04:22:00,34.0,21.2,29.88,NNW,338,6.0,6.0,59,0.00,,---,0.00,VWS V14.00,2013-01-25 10:22:00,
2013-01-25 04:28:00,33.8,21.4,29.88,NNW,338,2.4,2.7,60,0.00,,---,0.00,VWS V14.00,2013-01-25 10:28:00,
2013-01-25 04:33:00,33.6,22.0,29.88,NNW,338,6.3,6.3,62,0.00,,---,0.00,VWS V14.00,2013-01-25 10:33:00,
2013-01-25 04:39:00,33.6,22.0,29.88,North,0,5.5,5.5,62,0.00,,---,0.00,VWS V14.00,2013-01-25 10:39:00,
2013-01-25 04:44:00,33.6,22.0,29.88,North,0,6.0,6.0,62,0.00,,---,0.00,VWS V14.00,2013-01-25 10:44:00,
2013-01-25 04:50:00,33.6,22.0,29.88,North,0,6.3,6.3,62,0.00,,---,0.00,VWS V14.00,2013-01-25 10:50:00,
2013-01-25 04:55:00,33.6,22.4,29.88,North,0,9.1,9.1,63,0.00,,---,0.00,VWS V14.00,2013-01-25 10:55:00,
2013-01-25 05:00:00,33.4,22.2,29.88,North,0,7.2,7.2,63,0.00,,---,0.00,VWS V14.00,2013-01-25 11:00:00,
2013-01-25 05:05:00,33.3,22.8,29.88,North,0,9.1,9.1,65,0.00,,---,0.00,VWS V14.00,2013-01-25 11:05:00,
2013-01-25 05:11:00,33.1,23.0,29.88,North,0,8.8,8.8,66,0.00,,---,0.00,VWS V14.00,2013-01-25 11:11:00,
2013-01-25 05:16:00,33.1,23.3,29.91,NNW,338,4.9,5.8,67,0.00,,---,0.00,VWS V14.00,2013-01-25 11:16:00,
2013-01-25 05:22:00,32.9,23.5,29.91,NNE,22,9.1,9.1,68,0.00,,---,0.00,VWS V14.00,2013-01-25 11:22:00,
2013-01-25 05:28:00,32.9,23.5,29.91,North,0,4.9,4.9,68,0.00,,---,0.00,VWS V14.00,2013-01-25 11:28:00,
2013-01-25 05:33:00,32.9,23.5,29.88,NNE,22,5.5,5.5,68,0.00,,---,0.00,VWS V14.00,2013-01-25 11:33:00,
2013-01-25 05:39:00,32.7,24.7,29.88,North,0,8.6,8.6,72,0.05,,---,0.05,VWS V14.00,2013-01-25 11:39:00,
2013-01-25 05:44:00,32.7,25.0,29.88,North,0,7.7,7.7,73,0.05,,---,0.05,VWS V14.00,2013-01-25 11:44:00,
2013-01-25 05:50:00,32.5,25.2,29.91,North,0,10.8,10.8,74,0.05,,---,0.05,VWS V14.00,2013-01-25 11:50:00,
2013-01-25 05:56:00,32.4,25.3,29.91,NNE,22,7.2,7.6,75,0.05,,---,0.05,VWS V14.00,2013-01-25 11:56:00,
2013-01-25 06:01:00,32.4,25.3,29.91,North,0,10.5,10.5,75,0.05,,---,0.05,VWS V14.00,2013-01-25 12:01:00,
2013-01-25 06:07:00,32.2,25.2,29.91,NNE,22,8.3,8.3,75,0.05,,---,0.05,VWS V14.00,2013-01-25 12:07:00,
2013-01-25 06:13:00,32.2,25.2,29.91,NNW,338,8.6,8.6,75,0.05,,---,0.05,VWS V14.00,2013-01-25 12:13:00,
2013-01-25 06:18:00,32.2,25.5,29.91,North,0,8.3,8.3,76,0.05,,---,0.05,VWS V14.00,2013-01-25 12:18:00,
2013-01-25 06:23:00,32.2,25.5,29.91,NNE,22,7.7,7.7,76,0.05,,---,0.05,VWS V14.00,2013-01-25 12:23:00,
2013-01-25 06:29:00,32.0,25.3,29.91,North,0,11.9,11.9,76,0.05,,---,0.05,VWS V14.00,2013-01-25 12:29:00,
2013-01-25 06:35:00,31.8,24.8,29.91,North,0,8.0,8.0,75,0.05,,---,0.05,VWS V14.00,2013-01-25 12:35:00,
2013-01-25 06:40:00,31.8,24.8,29.91,North,0,6.3,6.3,75,0.00,,---,0.05,VWS V14.00,2013-01-25 12:40:00,
2013-01-25 06:46:00,31.8,24.8,29.91,SSE,158,4.1,4.1,75,0.00,,---,0.05,VWS V14.00,2013-01-25 12:46:00,
2013-01-25 06:52:00,31.8,24.8,29.91,NNW,338,3.5,3.5,75,0.00,,---,0.05,VWS V14.00,2013-01-25 12:52:00,
2013-01-25 06:57:00,31.8,24.8,29.91,North,0,4.6,4.6,75,0.00,,---,0.05,VWS V14.00,2013-01-25 12:57:00,
2013-01-25 07:04:00,31.6,24.3,29.91,North,0,3.0,3.0,74,0.00,,---,0.05,VWS V14.00,2013-01-25 13:04:00,
2013-01-25 07:09:00,31.6,24.3,29.91,NE,45,1.0,0.0,74,0.00,,---,0.05,VWS V14.00,2013-01-25 13:09:00,
2013-01-25 07:15:00,31.6,24.6,29.91,SW,225,1.0,2.2,75,0.00,,---,0.05,VWS V14.00,2013-01-25 13:15:00,
2013-01-25 07:21:00,31.8,24.8,29.91,ENE,68,1.0,0.0,75,0.00,,---,0.05,VWS V14.00,2013-01-25 13:21:00,
2013-01-25 07:27:00,31.8,24.8,29.91,North,0,4.6,4.6,75,0.00,,---,0.05,VWS V14.00,2013-01-25 13:27:00,
2013-01-25 07:32:00,31.8,24.8,29.91,North,0,4.1,4.1,75,0.00,,---,0.05,VWS V14.00,2013-01-25 13:32:00,
2013-01-25 07:38:00,31.8,24.8,29.91,NNW,338,5.2,5.2,75,0.00,,---,0.05,VWS V14.00,2013-01-25 13:38:00,
2013-01-25 07:43:00,31.8,24.8,29.91,North,0,5.8,5.8,75,0.00,,---,0.05,VWS V14.00,2013-01-25 13:43:00,
2013-01-25 07:49:00,32.0,25.0,29.94,North,0,4.6,4.6,75,0.00,,---,0.05,VWS V14.00,2013-01-25 13:49:00,
2013-01-25 07:54:00,32.0,25.0,29.94,North,0,4.6,4.6,75,0.00,,---,0.05,VWS V14.00,2013-01-25 13:54:00,
2013-01-25 08:00:00,32.2,25.5,29.94,NNW,338,3.5,3.5,76,0.00,,---,0.05,VWS V14.00,2013-01-25 14:00:00,
2013-01-25 08:06:00,32.2,25.2,29.94,North,0,4.4,4.4,75,0.00,,---,0.05,VWS V14.00,2013-01-25 14:06:00,
2013-01-25 08:11:00,32.2,25.2,29.94,NW,315,3.0,3.0,75,0.00,,---,0.05,VWS V14.00,2013-01-25 14:11:00,
2013-01-25 08:17:00,32.2,25.5,29.94,North,0,3.8,3.8,76,0.00,,---,0.05,VWS V14.00,2013-01-25 14:17:00,
2013-01-25 08:22:00,32.4,25.6,29.94,North,0,3.8,3.8,76,0.00,,---,0.05,VWS V14.00,2013-01-25 14:22:00,
2013-01-25 08:27:00,32.5,25.8,29.94,NNW,338,1.0,1.6,76,0.00,,---,0.05,VWS V14.00,2013-01-25 14:27:00,
2013-01-25 08:32:00,32.5,25.8,29.94,NNW,338,8.0,8.0,76,0.00,,---,0.05,VWS V14.00,2013-01-25 14:32:00,
2013-01-25 08:38:00,32.5,25.8,29.94,NNW,338,6.0,6.0,76,0.00,,---,0.05,VWS V14.00,2013-01-25 14:38:00,
2013-01-25 08:44:00,32.7,26.3,29.94,North,0,7.2,7.2,77,0.00,,---,0.05,VWS V14.00,2013-01-25 14:44:00,
2013-01-25 08:49:00,32.7,26.3,29.94,North,0,6.0,6.5,77,0.00,,---,0.05,VWS V14.00,2013-01-25 14:49:00,
2013-01-25 08:55:00,32.7,26.3,29.94,North,0,6.3,6.3,77,0.00,,---,0.05,VWS V14.00,2013-01-25 14:55:00,
2013-01-25 09:00:00,32.9,26.8,29.94,West,270,4.6,4.6,78,0.00,,---,0.05,VWS V14.00,2013-01-25 15:00:00,
2013-01-25 09:05:00,33.1,27.0,29.97,NNW,338,4.4,4.4,78,0.00,,---,0.05,VWS V14.00,2013-01-25 15:05:00,
2013-01-25 09:11:00,33.4,27.3,29.97,NNW,338,2.4,3.1,78,0.00,,---,0.05,VWS V14.00,2013-01-25 15:11:00,
2013-01-25 09:16:00,33.6,27.5,29.97,West,270,4.4,4.4,78,0.00,,---,0.05,VWS V14.00,2013-01-25 15:16:00,
2013-01-25 09:21:00,33.8,27.4,29.97,NNW,338,4.6,4.6,77,0.00,,---,0.05,VWS V14.00,2013-01-25 15:21:00,
2013-01-25 09:27:00,34.0,27.5,29.97,NW,315,1.0,2.9,77,0.00,,---,0.05,VWS V14.00,2013-01-25 15:27:00,
2013-01-25 09:33:00,34.3,27.9,29.97,NW,315,4.1,4.1,77,0.00,,---,0.05,VWS V14.00,2013-01-25 15:33:00,
2013-01-25 09:38:00,34.5,27.8,29.97,WSW,248,2.1,2.1,76,0.00,,---,0.05,VWS V14.00,2013-01-25 15:38:00,
2013-01-25 09:43:00,34.9,28.1,29.97,NNW,338,3.8,3.8,76,0.00,,---,0.05,VWS V14.00,2013-01-25 15:43:00,
2013-01-25 09:49:00,35.1,28.0,29.97,NNE,22,4.6,5.6,75,0.00,,---,0.05,VWS V14.00,2013-01-25 15:49:00,
2013-01-25 09:55:00,35.2,27.8,29.97,North,0,7.2,7.2,74,0.00,,---,0.05,VWS V14.00,2013-01-25 15:55:00,
2013-01-25 10:01:00,35.4,27.6,29.97,North,0,6.3,6.3,73,0.00,,---,0.05,VWS V14.00,2013-01-25 16:01:00,
2013-01-25 10:06:00,35.6,27.1,29.97,North,0,9.1,9.1,71,0.00,,---,0.05,VWS V14.00,2013-01-25 16:06:00,
2013-01-25 10:12:00,35.8,27.0,29.97,NNW,338,7.7,7.7,70,0.00,,---,0.05,VWS V14.00,2013-01-25 16:12:00,
2013-01-25 10:17:00,36.1,27.3,29.97,NNE,22,5.2,5.4,70,0.00,,---,0.05,VWS V14.00,2013-01-25 16:17:00,
2013-01-25 10:22:00,36.3,27.5,29.97,North,0,10.8,10.8,70,0.00,,---,0.05,VWS V14.00,2013-01-25 16:22:00,
2013-01-25 10:28:00,36.7,27.8,29.97,North,0,5.5,5.5,70,0.00,,---,0.05,VWS V14.00,2013-01-25 16:28:00,
2013-01-25 10:33:00,36.9,27.7,29.97,NNW,338,5.5,5.5,69,0.00,,---,0.05,VWS V14.00,2013-01-25 16:33:00,
2013-01-25 10:39:00,36.9,27.3,29.97,NNW,338,6.0,6.0,68,0.00,,---,0.05,VWS V14.00,2013-01-25 16:39:00,
2013-01-25 10:44:00,37.0,27.8,29.97,NNE,22,6.9,6.9,69,0.00,,---,0.05,VWS V14.00,2013-01-25 16:44:00,
2013-01-25 10:50:00,37.2,27.6,29.97,NW,315,4.9,4.9,68,0.00,,---,0.05,VWS V14.00,2013-01-25 16:50:00,
2013-01-25 10:55:00,37.4,27.5,29.97,WSW,248,2.7,4.3,67,0.00,,---,0.05,VWS V14.00,2013-01-25 16:55:00,
2013-01-25 11:01:00,37.9,28.3,29.97,North,0,4.4,4.4,68,0.00,,---,0.05,VWS V14.00,2013-01-25 17:01:00,
2013-01-25 11:06:00,38.1,28.5,29.97,North,0,5.8,7.2,68,0.00,,---,0.05,VWS V14.00,2013-01-25 17:06:00,
2013-01-25 11:12:00,37.6,26.9,29.97,North,0,4.4,4.4,65,0.00,,---,0.05,VWS V14.00,2013-01-25 17:12:00,
2013-01-25 11:18:00,37.9,27.6,29.97,NW,315,5.5,6.0,66,0.00,,---,0.05,VWS V14.00,2013-01-25 17:18:00,
2013-01-25 11:23:00,37.9,27.2,29.97,WNW,292,7.7,7.7,65,0.00,,---,0.05,VWS V14.00,2013-01-25 17:23:00,
2013-01-25 11:29:00,38.5,28.1,29.97,NNW,338,4.9,6.0,66,0.00,,---,0.05,VWS V14.00,2013-01-25 17:29:00,
2013-01-25 11:34:00,38.7,27.9,29.97,SSW,202,5.2,5.8,65,0.00,,---,0.05,VWS V14.00,2013-01-25 17:34:00,
2013-01-25 11:40:00,39.2,28.4,29.97,NNE,22,8.0,8.0,65,0.00,,---,0.05,VWS V14.00,2013-01-25 17:40:00,
2013-01-25 11:46:00,39.2,27.7,29.94,West,270,4.4,7.8,63,0.00,,---,0.05,VWS V14.00,2013-01-25 17:46:00,
2013-01-25 11:51:00,39.4,27.9,29.94,North,0,7.7,7.7,63,0.00,,---,0.05,VWS V14.00,2013-01-25 17:51:00,
2013-01-25 11:56:00,39.7,28.2,29.94,WNW,292,3.8,5.4,63,0.00,,---,0.05,VWS V14.00,2013-01-25 17:56:00,
2013-01-25 12:02:00,39.9,28.0,29.94,North,0,9.4,9.4,62,0.00,,---,0.05,VWS V14.00,2013-01-25 18:02:00,
2013-01-25 12:08:00,40.5,28.1,29.94,North,0,5.2,5.8,61,0.00,,---,0.05,VWS V14.00,2013-01-25 18:08:00,
2013-01-25 12:13:00,40.5,28.1,29.94,North,0,8.3,10.5,61,0.00,,---,0.05,VWS V14.00,2013-01-25 18:13:00,
2013-01-25 12:18:00,40.6,27.9,29.94,North,0,6.0,6.0,60,0.00,,---,0.05,VWS V14.00,2013-01-25 18:18:00,
2013-01-25 12:24:00,41.0,27.4,29.94,SE,135,4.6,4.6,58,0.00,,---,0.05,VWS V14.00,2013-01-25 18:24:00,
2013-01-25 12:29:00,41.4,27.7,29.94,NNW,338,7.2,7.2,58,0.00,,---,0.05,VWS V14.00,2013-01-25 18:29:00,
2013-01-25 12:35:00,41.7,27.6,29.94,North,0,5.8,5.8,57,0.00,,---,0.05,VWS V14.00,2013-01-25 18:35:00,
2013-01-25 12:41:00,42.1,28.0,29.94,NNW,338,5.2,5.4,57,0.00,,---,0.05,VWS V14.00,2013-01-25 18:41:00,
2013-01-25 12:47:00,42.4,27.9,29.94,NW,315,4.1,4.1,56,0.00,,---,0.05,VWS V14.00,2013-01-25 18:47:00,
2013-01-25 12:52:00,42.6,28.0,29.94,NNW,338,6.3,6.3,56,0.00,,---,0.05,VWS V14.00,2013-01-25 18:52:00,
2013-01-25 12:58:00,42.4,27.0,29.94,NW,315,6.3,6.3,54,0.00,,---,0.05,VWS V14.00,2013-01-25 18:58:00,
2013-01-25 13:04:00,42.4,26.5,29.94,WNW,292,3.8,3.8,53,0.00,,---,0.05,VWS V14.00,2013-01-25 19:04:00,
2013-01-25 13:10:00,42.6,27.1,29.94,West,270,6.0,6.0,54,0.00,,---,0.05,VWS V14.00,2013-01-25 19:10:00,
2013-01-25 13:15:00,43.0,27.5,29.94,NNW,338,6.3,7.6,54,0.00,,---,0.05,VWS V14.00,2013-01-25 19:15:00,
2013-01-25 13:20:00,43.3,27.8,29.94,NNW,338,5.5,5.5,54,0.00,,---,0.05,VWS V14.00,2013-01-25 19:20:00,
2013-01-25 13:26:00,43.3,27.4,29.94,ENE,68,6.3,6.3,53,0.00,,---,0.05,VWS V14.00,2013-01-25 19:26:00,
2013-01-25 13:32:00,43.7,27.2,29.94,NNW,338,4.6,4.7,52,0.00,,---,0.05,VWS V14.00,2013-01-25 19:32:00,
2013-01-25 13:38:00,43.7,27.2,29.94,North,0,4.1,4.1,52,0.00,,---,0.05,VWS V14.00,2013-01-25 19:38:00,
2013-01-25 13:43:00,43.5,27.1,29.94,SE,135,1.0,1.0,52,0.00,,---,0.05,VWS V14.00,2013-01-25 19:43:00,
2013-01-25 13:49:00,43.7,27.2,29.94,NNE,22,4.9,6.3,52,0.00,,---,0.05,VWS V14.00,2013-01-25 19:49:00,
2013-01-25 13:55:00,43.9,27.4,29.94,NNE,22,3.8,3.8,52,0.00,,---,0.05,VWS V14.00,2013-01-25 19:55:00,
2013-01-25 14:00:00,44.1,27.6,29.94,North,0,8.8,8.8,52,0.00,,---,0.05,VWS V14.00,2013-01-25 20:00:00,
2013-01-25 14:06:00,44.1,27.6,29.94,WNW,292,4.9,5.6,52,0.00,,---,0.05,VWS V14.00,2013-01-25 20:06:00,
2013-01-25 14:11:00,43.9,27.4,29.94,ENE,68,2.1,2.7,52,0.00,,---,0.05,VWS V14.00,2013-01-25 20:11:00,
2013-01-25 14:16:00,43.9,27.4,29.94,NW,315,4.6,4.6,52,0.00,,---,0.05,VWS V14.00,2013-01-25 20:16:00,
2013-01-25 14:21:00,44.1,27.6,29.94,West,270,3.0,3.0,52,0.00,,---,0.05,VWS V14.00,2013-01-25 20:21:00,
2013-01-25 14:27:00,44.1,28.0,29.94,NNW,338,4.6,4.6,53,0.00,,---,0.05,VWS V14.00,2013-01-25 20:27:00,
2013-01-25 14:33:00,44.2,28.2,29.94,NW,315,5.2,5.2,53,0.00,,---,0.05,VWS V14.00,2013-01-25 20:33:00,
2013-01-25 14:38:00,44.6,28.5,29.94,NW,315,3.8,3.8,53,0.00,,---,0.05,VWS V14.00,2013-01-25 20:38:00,
2013-01-25 14:43:00,45.0,28.9,29.94,NNE,22,2.1,2.1,53,0.00,,---,0.05,VWS V14.00,2013-01-25 20:43:00,
2013-01-25 14:49:00,45.3,29.2,29.94,NNW,338,4.1,4.1,53,0.00,,---,0.05,VWS V14.00,2013-01-25 20:49:00,
2013-01-25 14:56:00,45.3,28.8,29.94,NW,315,2.7,2.7,52,0.00,,---,0.05,VWS V14.00,2013-01-25 20:56:00,
2013-01-25 15:02:00,45.9,29.7,29.94,West,270,4.6,4.6,53,0.00,,---,0.05,VWS V14.00,2013-01-25 21:02:00,
2013-01-25 15:07:00,45.9,29.2,29.94,NNE,22,6.0,6.0,52,0.00,,---,0.05,VWS V14.00,2013-01-25 21:07:00,
2013-01-25 15:13:00,45.7,29.1,29.94,North,0,1.0,1.6,52,0.00,,---,0.05,VWS V14.00,2013-01-25 21:13:00,
2013-01-25 15:18:00,45.5,28.9,29.94,West,270,4.6,4.6,52,0.00,,---,0.05,VWS V14.00,2013-01-25 21:18:00,
2013-01-25 15:24:00,45.3,28.8,29.94,WNW,292,3.5,4.9,52,0.00,,---,0.05,VWS V14.00,2013-01-25 21:24:00,
2013-01-25 15:30:00,45.1,28.6,29.94,NW,315,2.7,2.9,52,0.00,,---,0.05,VWS V14.00,2013-01-25 21:30:00,
2013-01-25 15:35:00,44.8,28.2,29.94,West,270,4.9,4.9,52,0.00,,---,0.05,VWS V14.00,2013-01-25 21:35:00,
2013-01-25 15:41:00,44.8,29.2,29.94,WSW,248,4.4,4.4,54,0.00,,---,0.05,VWS V14.00,2013-01-25 21:41:00,
2013-01-25 15:46:00,45.1,29.5,29.94,SSW,202,3.0,3.0,54,0.00,,---,0.05,VWS V14.00,2013-01-25 21:46:00,
2013-01-25 15:52:00,45.5,29.8,29.94,NW,315,2.7,2.7,54,0.00,,---,0.05,VWS V14.00,2013-01-25 21:52:00,
2013-01-25 15:58:00,45.5,29.4,29.94,West,270,3.5,3.6,53,0.00,,---,0.05,VWS V14.00,2013-01-25 21:58:00,
2013-01-25 16:03:00,45.3,28.8,29.94,West,270,2.1,2.1,52,0.00,,---,0.05,VWS V14.00,2013-01-25 22:03:00,
2013-01-25 16:09:00,45.3,29.2,29.94,West,270,3.0,3.0,53,0.00,,---,0.05,VWS V14.00,2013-01-25 22:09:00,
2013-01-25 16:15:00,44.8,28.7,29.94,West,270,3.8,3.8,53,0.00,,---,0.05,VWS V14.00,2013-01-25 22:15:00,
2013-01-25 16:20:00,44.6,28.5,29.94,West,270,2.4,2.4,53,0.00,,---,0.05,VWS V14.00,2013-01-25 22:20:00,
2013-01-25 16:25:00,44.2,28.2,29.94,WSW,248,3.0,3.0,53,0.00,,---,0.05,VWS V14.00,2013-01-25 22:25:00,
2013-01-25 16:31:00,43.9,27.9,29.94,NW,315,4.1,4.1,53,0.00,,---,0.05,VWS V14.00,2013-01-25 22:31:00,
2013-01-25 16:37:00,43.5,27.5,29.94,NW,315,1.0,1.3,53,0.00,,---,0.05,VWS V14.00,2013-01-25 22:37:00,
2013-01-25 16:42:00,43.3,27.4,29.94,NW,315,3.0,3.0,53,0.00,,---,0.05,VWS V14.00,2013-01-25 22:42:00,
2013-01-25 16:48:00,43.2,27.2,29.97,NW,315,1.0,0.0,53,0.00,,---,0.05,VWS V14.00,2013-01-25 22:48:00,
2013-01-25 16:53:00,43.0,27.0,29.97,NW,315,2.4,2.4,53,0.00,,---,0.05,VWS V14.00,2013-01-25 22:53:00,
2013-01-25 16:59:00,42.6,27.1,29.97,NW,315,2.1,2.1,54,0.00,,---,0.05,VWS V14.00,2013-01-25 22:59:00,
2013-01-25 17:04:00,42.3,27.3,29.94,NW,315,1.0,0.0,55,0.00,,---,0.05,VWS V14.00,2013-01-25 23:04:00,
2013-01-25 17:10:00,42.1,27.1,29.94,ESE,112,2.7,2.7,55,0.00,,---,0.05,VWS V14.00,2013-01-25 23:10:00,
2013-01-25 17:16:00,41.7,27.2,29.97,SE,135,1.0,1.1,56,0.00,,---,0.05,VWS V14.00,2013-01-25 23:16:00,
2013-01-25 17:22:00,41.4,26.9,29.97,SE,135,1.0,0.0,56,0.00,,---,0.05,VWS V14.00,2013-01-25 23:22:00,
2013-01-25 17:28:00,40.8,27.2,29.97,SE,135,1.0,0.0,58,0.00,,---,0.05,VWS V14.00,2013-01-25 23:28:00,
2013-01-25 17:33:00,40.6,27.5,29.97,SW,225,2.1,2.1,59,0.00,,---,0.05,VWS V14.00,2013-01-25 23:33:00,
2013-01-25 17:38:00,40.5,27.7,29.97,South,180,3.0,3.0,60,0.00,,---,0.05,VWS V14.00,2013-01-25 23:38:00,
2013-01-25 17:44:00,40.1,27.8,29.97,South,180,2.4,2.4,61,0.00,,---,0.05,VWS V14.00,2013-01-25 23:44:00,
2013-01-25 17:50:00,39.7,27.8,29.97,SSW,202,1.0,0.0,62,0.00,,---,0.05,VWS V14.00,2013-01-25 23:50:00,
2013-01-25 17:55:00,39.6,28.0,29.97,SSW,202,1.0,1.1,63,0.00,,---,0.05,VWS V14.00,2013-01-25 23:55:00,
2013-01-25 18:00:00,39.4,27.9,29.97,SSW,202,1.0,0.0,63,0.00,,---,0.05,VWS V14.00,2013-01-26 00:00:00,
2013-01-25 18:05:00,39.2,27.7,29.97,SSW,202,2.1,2.1,63,0.00,,---,0.05,VWS V14.00,2013-01-26 00:05:00,
2013-01-25 18:11:00,39.0,27.9,29.97,SSW,202,1.0,0.0,64,0.00,,---,0.05,VWS V14.00,2013-01-26 00:11:00,
2013-01-25 18:17:00,38.8,28.1,29.97,SSW,202,1.0,1.0,65,0.00,,---,0.05,VWS V14.00,2013-01-26 00:17:00,
2013-01-25 18:22:00,38.7,28.3,29.97,SSW,202,1.0,0.0,66,0.00,,---,0.05,VWS V14.00,2013-01-26 00:22:00,
2013-01-25 18:27:00,38.5,28.1,29.97,SSW,202,1.0,0.0,66,0.00,,---,0.05,VWS V14.00,2013-01-26 00:27:00,
2013-01-25 18:33:00,38.1,28.1,29.97,SSW,202,1.0,0.0,67,0.00,,---,0.05,VWS V14.00,2013-01-26 00:33:00,
2013-01-25 18:39:00,37.9,28.3,29.97,SSW,202,1.0,0.0,68,0.00,,---,0.05,VWS V14.00,2013-01-26 00:39:00,
2013-01-25 18:44:00,37.9,28.7,29.97,SSW,202,2.7,2.7,69,0.00,,---,0.05,VWS V14.00,2013-01-26 00:44:00,
2013-01-25 18:50:00,37.8,28.5,29.97,SSW,202,1.0,0.0,69,0.00,,---,0.05,VWS V14.00,2013-01-26 00:50:00,
2013-01-25 18:55:00,37.6,28.4,29.97,SW,225,2.4,2.4,69,0.00,,---,0.05,VWS V14.00,2013-01-26 00:55:00,
2013-01-25 19:01:00,37.6,28.4,29.97,West,270,2.4,2.4,69,0.00,,---,0.05,VWS V14.00,2013-01-26 01:01:00,
2013-01-25 19:07:00,37.6,28.4,29.97,WSW,248,3.0,3.0,69,0.00,,---,0.05,VWS V14.00,2013-01-26 01:07:00,
2013-01-25 19:12:00,37.6,28.7,29.97,SW,225,3.0,3.0,70,0.00,,---,0.05,VWS V14.00,2013-01-26 01:12:00,
2013-01-25 19:17:00,37.6,28.7,29.97,WSW,248,3.5,3.5,70,0.00,,---,0.05,VWS V14.00,2013-01-26 01:17:00,
2013-01-25 19:22:00,37.6,28.7,29.97,WSW,248,2.7,2.7,70,0.00,,---,0.05,VWS V14.00,2013-01-26 01:22:00,
2013-01-25 19:27:00,37.6,28.7,29.97,West,270,2.7,2.7,70,0.00,,---,0.05,VWS V14.00,2013-01-26 01:27:00,
2013-01-25 19:34:00,37.6,28.7,29.97,SW,225,1.0,0.0,70,0.00,,---,0.05,VWS V14.00,2013-01-26 01:34:00,
2013-01-25 19:39:00,37.6,28.7,29.97,SW,225,2.7,2.7,70,0.00,,---,0.05,VWS V14.00,2013-01-26 01:39:00,
2013-01-25 19:44:00,37.4,28.5,29.97,WSW,248,3.0,3.0,70,0.00,,---,0.05,VWS V14.00,2013-01-26 01:44:00,
2013-01-25 19:50:00,37.4,28.9,30.00,WSW,248,1.0,1.0,71,0.00,,---,0.05,VWS V14.00,2013-01-26 01:50:00,
2013-01-25 19:55:00,37.2,28.7,30.00,SSW,202,1.0,1.6,71,0.00,,---,0.05,VWS V14.00,2013-01-26 01:55:00,
2013-01-25 20:00:00,37.0,28.5,30.00,SW,225,1.0,0.0,71,0.00,,---,0.05,VWS V14.00,2013-01-26 02:00:00,
2013-01-25 20:06:00,37.0,28.5,29.97,SW,225,1.0,1.1,71,0.00,,---,0.05,VWS V14.00,2013-01-26 02:06:00,
2013-01-25 20:11:00,36.9,28.4,29.97,SW,225,1.0,0.0,71,0.00,,---,0.05,VWS V14.00,2013-01-26 02:11:00,
2013-01-25 20:16:00,36.7,28.2,30.00,SW,225,1.0,0.0,71,0.00,,---,0.05,VWS V14.00,2013-01-26 02:16:00,
2013-01-25 20:21:00,36.5,28.0,30.00,SW,225,1.0,0.0,71,0.00,,---,0.05,VWS V14.00,2013-01-26 02:21:00,
2013-01-25 20:26:00,36.3,28.2,30.00,SW,225,1.0,0.0,72,0.00,,---,0.05,VWS V14.00,2013-01-26 02:26:00,
2013-01-25 20:32:00,36.0,27.8,30.00,SW,225,3.5,3.5,72,0.00,,---,0.05,VWS V14.00,2013-01-26 02:32:00,
2013-01-25 20:37:00,35.8,28.0,30.00,WSW,248,4.1,4.1,73,0.00,,---,0.05,VWS V14.00,2013-01-26 02:37:00,
2013-01-25 20:42:00,35.8,28.0,30.00,SW,225,3.0,3.0,73,0.00,,---,0.05,VWS V14.00,2013-01-26 02:42:00,
2013-01-25 20:48:00,35.8,28.3,30.00,SW,225,1.0,1.3,74,0.00,,---,0.05,VWS V14.00,2013-01-26 02:48:00,
2013-01-25 20:53:00,35.8,28.3,30.00,SW,225,1.0,0.0,74,0.00,,---,0.05,VWS V14.00,2013-01-26 02:53:00,
2013-01-25 20:58:00,35.6,28.1,30.00,SW,225,1.0,0.0,74,0.00,,---,0.05,VWS V14.00,2013-01-26 02:58:00,
2013-01-25 21:04:00,35.4,28.3,30.00,SW,225,1.0,0.0,75,0.00,,---,0.05,VWS V14.00,2013-01-26 03:04:00,
2013-01-25 21:10:00,35.2,28.1,30.00,SW,225,1.0,0.0,75,0.00,,---,0.05,VWS V14.00,2013-01-26 03:10:00,
2013-01-25 21:15:00,35.1,28.0,30.00,SW,225,1.0,1.1,75,0.00,,---,0.05,VWS V14.00,2013-01-26 03:15:00,
2013-01-25 21:21:00,35.1,28.0,30.00,SW,225,1.0,0.0,75,0.00,,---,0.05,VWS V14.00,2013-01-26 03:21:00,
2013-01-25 21:27:00,35.1,28.3,30.00,SSE,158,3.8,3.8,76,0.00,,---,0.05,VWS V14.00,2013-01-26 03:27:00,
2013-01-25 21:32:00,35.1,28.3,30.00,SE,135,1.0,0.0,76,0.00,,---,0.05,VWS V14.00,2013-01-26 03:32:00,
2013-01-25 21:38:00,34.9,28.1,30.00,SSE,158,4.4,4.4,76,0.00,,---,0.05,VWS V14.00,2013-01-26 03:38:00,
2013-01-25 21:44:00,35.1,28.3,30.00,SW,225,2.4,2.4,76,0.00,,---,0.05,VWS V14.00,2013-01-26 03:44:00,
2013-01-25 21:49:00,35.1,28.6,30.00,SW,225,1.0,0.0,77,0.00,,---,0.05,VWS V14.00,2013-01-26 03:49:00,
2013-01-25 21:55:00,35.1,28.6,30.00,WSW,248,4.1,4.1,77,0.00,,---,0.05,VWS V14.00,2013-01-26 03:55:00,
2013-01-25 22:01:00,35.1,28.6,30.00,South,180,1.0,2.2,77,0.00,,---,0.05,VWS V14.00,2013-01-26 04:01:00,
2013-01-25 22:07:00,35.1,28.6,30.00,SW,225,1.0,0.0,77,0.00,,---,0.05,VWS V14.00,2013-01-26 04:07:00,
2013-01-25 22:13:00,35.1,28.6,30.00,SW,225,2.4,2.4,77,0.00,,---,0.05,VWS V14.00,2013-01-26 04:13:00,
2013-01-25 22:18:00,34.9,28.4,30.00,SW,225,2.4,2.4,77,0.00,,---,0.05,VWS V14.00,2013-01-26 04:18:00,
2013-01-25 22:24:00,34.9,28.7,30.00,SW,225,2.4,2.4,78,0.00,,---,0.05,VWS V14.00,2013-01-26 04:24:00,
2013-01-25 22:30:00,34.9,28.7,30.00,SSW,202,1.0,1.1,78,0.00,,---,0.05,VWS V14.00,2013-01-26 04:30:00,
2013-01-25 22:36:00,35.1,28.9,30.03,SSW,202,1.0,0.0,78,0.00,,---,0.05,VWS V14.00,2013-01-26 04:36:00,
2013-01-25 22:41:00,35.1,28.9,30.03,SSW,202,1.0,0.0,78,0.00,,---,0.05,VWS V14.00,2013-01-26 04:41:00,
2013-01-25 22:46:00,35.1,28.9,30.03,ESE,112,1.0,0.0,78,0.00,,---,0.05,VWS V14.00,2013-01-26 04:46:00,
2013-01-25 22:51:00,34.9,28.7,30.03,ESE,112,1.0,0.0,78,0.00,,---,0.05,VWS V14.00,2013-01-26 04:51:00,
2013-01-25 22:56:00,34.7,28.5,30.03,ESE,112,1.0,0.0,78,0.00,,---,0.05,VWS V14.00,2013-01-26 04:56:00,
2013-01-25 23:00:00,34.5,28.4,30.03,ESE,112,1.0,0.0,78,0.00,,---,0.05,VWS V14.00,2013-01-26 05:00:00,
2013-01-25 23:01:00,34.3,28.2,30.03,ESE,112,1.0,0.0,78,0.00,,---,0.05,VWS V14.00,2013-01-26 05:01:00,
2013-01-25 23:02:00,34.3,28.2,30.03,ESE,112,1.0,1.1,78,0.00,,---,0.05,VWS V14.00,2013-01-26 05:02:00,
2013-01-25 23:07:00,34.3,28.2,30.03,ESE,112,1.0,0.0,78,0.00,,---,0.05,VWS V14.00,2013-01-26 05:07:00,
2013-01-25 23:13:00,34.0,27.9,30.03,ESE,112,1.0,0.0,78,0.00,,---,0.05,VWS V14.00,2013-01-26 05:13:00,
2013-01-25 23:19:00,34.0,28.2,30.03,ESE,112,1.0,0.0,79,0.00,,---,0.05,VWS V14.00,2013-01-26 05:19:00,
2013-01-25 23:24:00,33.8,28.0,30.03,ESE,112,1.0,0.0,79,0.00,,---,0.05,VWS V14.00,2013-01-26 05:24:00,
2013-01-25 23:29:00,33.6,27.8,30.03,ESE,112,1.0,0.0,79,0.00,,---,0.05,VWS V14.00,2013-01-26 05:29:00,
2013-01-25 23:34:00,33.6,27.8,30.03,ENE,68,1.0,1.1,79,0.00,,---,0.05,VWS V14.00,2013-01-26 05:34:00,
2013-01-25 23:39:00,33.4,27.6,30.03,ENE,68,1.0,0.0,79,0.00,,---,0.05,VWS V14.00,2013-01-26 05:39:00,
2013-01-25 23:45:00,33.3,27.5,30.03,ENE,68,1.0,0.0,79,0.00,,---,0.05,VWS V14.00,2013-01-26 05:45:00,
2013-01-25 23:46:00,33.3,27.8,30.03,ENE,68,2.4,2.4,80,0.00,,---,0.05,VWS V14.00,2013-01-26 05:46:00,
2013-01-25 23:47:00,33.3,27.8,30.03,ENE,68,2.4,2.4,80,0.00,,---,0.05,VWS V14.00,2013-01-26 05:47:00,
2013-01-25 23:48:00,33.3,27.8,30.03,ENE,68,3.5,3.5,80,0.00,,---,0.05,VWS V14.00,2013-01-26 05:48:00,
2013-01-25 23:49:00,33.3,27.8,30.03,ENE,68,2.7,2.7,80,0.00,,---,0.05,VWS V14.00,2013-01-26 05:49:00,
2013-01-25 23:50:00,33.3,27.8,30.03,ENE,68,2.7,2.7,80,0.00,,---,0.05,VWS V14.00,2013-01-26 05:50:00,
2013-01-25 23:51:00,33.1,27.6,30.03,ENE,68,2.4,2.4,80,0.00,,---,0.05,VWS V14.00,2013-01-26 05:51:00,
2013-01-25 23:52:00,33.1,27.3,30.03,ENE,68,3.0,3.0,79,0.00,,---,0.05,VWS V14.00,2013-01-26 05:52:00,
2013-01-25 23:53:00,33.1,27.3,30.03,ENE,68,3.0,3.0,79,0.00,,---,0.05,VWS V14.00,2013-01-26 05:53:00,
2013-01-25 23:54:00,33.1,27.3,30.03,NE,45,3.8,3.8,79,0.00,,---,0.05,VWS V14.00,2013-01-26 05:54:00,
2013-01-25 23:55:00,33.1,27.3,30.03,NE,45,3.5,3.5,79,0.00,,---,0.05,VWS V14.00,2013-01-26 05:55:00,
2013-01-25 23:56:00,33.1,27.3,30.03,NE,45,3.0,3.0,79,0.00,,---,0.05,VWS V14.00,2013-01-26 05:56:00,
2013-01-25 23:57:00,32.9,27.1,30.03,NE,45,2.7,2.7,79,0.00,,---,0.05,VWS V14.00,2013-01-26 05:57:00,
2013-01-25 23:58:00,32.9,27.1,30.03,NE,45,2.1,2.1,79,0.00,,---,0.05,VWS V14.00,2013-01-26 05:58:00,
2013-01-25 23:59:00,32.9,27.4,30.03,NE,45,1.0,1.0,80,0.00,,---,0.05,VWS V14.00,2013-01-26 05:59:00,